This demonstration page uses our WeatherBlox Daily Observations layout. Learn more.

Left ArrowRight Arrow

Hourly Observations for November 29, 2021

Temp ( °F °C ) Dew Point ( °F °C ) Humidity (%) Winds ( mph kmh ) Pressure ( in mb ) Visibility ( mi km ) Precip ( " mm )
12:56 am 00:56 Clear 41 5 28 -2.2 60 60 WSW 7 11 29.99 1016 10 16 0.00 0.00
1:56 am 01:56 Clear 43 6.1 29 -1.7 58 58 WSW 8 13 29.96 1015 10 16 0.00 0.00
2:56 am 02:56 Clear 41 5 29 -1.7 62 62 WSW 9 15 29.96 1015 10 16 0.00 0.00
3:56 am 03:56 Clear 44 6.7 30 -1.1 58 58 W 8 13 29.94 1014 10 16 0.00 0.00
4:56 am 04:56 Clear 43 6.1 31 -0.6 63 63 W 6 9 29.95 1014 10 16 0.00 0.00
5:56 am 05:56 Clear 42 5.6 31 -0.6 65 65 WNW 10 17 29.96 1015 10 16 0.00 0.00
6:56 am 06:56 Clear 40 4.4 31 -0.6 70 70 W 6 9 29.98 1015 10 16 0.00 0.00
7:56 am 07:56 Sunny 44 6.7 32 0 63 63 W 10 17 29.98 1015 10 16 0.00 0.00
8:56 am 08:56 Sunny 47 8.3 33 0.6 59 59 WNW 9 15 29.98 1015 10 16 0.00 0.00
9:56 am 09:56 Sunny 50 10 34 1.1 54 54 NW 10 17 30.00 1016 10 16 0.00 0.00
10:56 am 10:56 Sunny 55 12.8 35 1.7 47 47 WNW 13 20 29.99 1016 10 16 0.00 0.00
11:56 am 11:56 Sunny 61 16.1 36 2.2 39 39 WNW 6 9 29.97 1015 10 16 0.00 0.00
12:56 pm 12:56 Sunny 67 19.4 35 1.7 31 31 NNW 9 15 29.95 1014 10 16 0.00 0.00
1:56 pm 13:56 Sunny 70 21.1 35 1.7 28 28 NNW 7 11 29.93 1014 10 16 0.00 0.00
2:56 pm 14:56 Sunny 71 21.7 32 0 24 24 N 14 22 29.93 1014 10 16 0.00 0.00
3:56 pm 15:56 Sunny 69 20.6 33 0.6 26 26 NNW 9 15 29.94 1014 10 16 0.00 0.00
4:56 pm 16:56 Sunny 64 17.8 33 0.6 32 32 NNW 6 9 29.96 1015 10 16 0.00 0.00
5:56 pm 17:56 Clear 58 14.4 31 -0.6 36 36 N 6 9 30.00 1016 10 16 0.00 0.00
6:56 pm 18:56 Clear 52 11.1 31 -0.6 45 45 W 5 7 30.02 1017 10 16 0.00 0.00
7:56 pm 19:56 Clear 51 10.6 30 -1.1 44 44 NW 8 13 30.03 1017 10 16 0.00 0.00
8:56 pm 20:56 Clear 47 8.3 30 -1.1 52 52 NW 8 13 30.04 1017 10 16 0.00 0.00
9:56 pm 21:56 Clear 44 6.7 29 -1.7 55 55 Calm 30.05 1018 10 16 0.00 0.00
10:56 pm 22:56 Clear 41 5 28 -2.2 60 60 NNW 9 15 30.06 1018 10 16 0.00 0.00
11:56 pm 23:56 Clear 36 2.2 26 -3.3 67 67 NNW 6 9 30.08 1019 10 16 0.00 0.00

Powered by AerisWeather